Estación de Tierras Nobles

Ultimos registro cada 15 minutos 59
Estación Fecha / Hora Temperatura Humedad Lluvia Velocidad Dirección Radiación Presion
59 Tierras Nobles 07-05-2026 14:30 12,4 66 0 0 219 148 1025,4
58 Tierras Nobles 07-05-2026 14:15 12,4 66 0 0 205 214 1025,6
57 Tierras Nobles 07-05-2026 14:00 12,2 66 0 0 203 197 1025,7
56 Tierras Nobles 07-05-2026 13:45 12,2 67 0 0 201 216 1025,8
55 Tierras Nobles 07-05-2026 13:30 12,3 67 0 0,4 170 258 1025,7
54 Tierras Nobles 07-05-2026 13:15 12,2 67 0 0,4 170 264 1025,8
53 Tierras Nobles 07-05-2026 13:00 12,2 66 0 0 200 253 1025,9
52 Tierras Nobles 07-05-2026 12:45 12,1 66 0 0 207 279 1026
51 Tierras Nobles 07-05-2026 12:30 12,2 71 0 0,9 213 257 1026,7
50 Tierras Nobles 07-05-2026 12:15 11,9 70 0 0 247 264 1026,6
49 Tierras Nobles 07-05-2026 12:00 11,9 71 0 1,3 224 253 1026,2
48 Tierras Nobles 07-05-2026 11:45 11,8 73 0 1,3 200 257 1026,2
47 Tierras Nobles 07-05-2026 11:30 11,9 74 0 1,8 209 438 1026,7
46 Tierras Nobles 07-05-2026 11:15 11,3 74 0 0 230 510 1026,9
45 Tierras Nobles 07-05-2026 11:00 10,3 67 0 0 220 325 1026,9
44 Tierras Nobles 07-05-2026 10:45 8,8 57 0 1,3 209 288 1026,9
43 Tierras Nobles 07-05-2026 10:30 8 55 0 0 203 290 1027
42 Tierras Nobles 07-05-2026 10:15 7,9 53 0 0,4 221 265 1027,1
41 Tierras Nobles 07-05-2026 10:00 7,2 54 0 0 161 357 1027,1
40 Tierras Nobles 07-05-2026 09:45 6,3 57 0 0 162 304 1026,9
39 Tierras Nobles 07-05-2026 09:30 6,2 57 0 0 133 76 1027
38 Tierras Nobles 07-05-2026 09:15 5,9 58 0 0 190 79 1027
37 Tierras Nobles 07-05-2026 09:00 5,6 59 0 0 192 39 1026,5
36 Tierras Nobles 07-05-2026 08:45 5,4 60 0 0 192 28 1026,1
35 Tierras Nobles 07-05-2026 08:30 5,4 61 0 0 192 42 1025,9
34 Tierras Nobles 07-05-2026 08:15 5,6 62 0 0 121 23 1025,7
33 Tierras Nobles 07-05-2026 08:00 5,7 61 0 0 121 14 1025,5
32 Tierras Nobles 07-05-2026 07:45 5,8 62 0 0 121 7 1025,5
31 Tierras Nobles 07-05-2026 07:30 5,9 62 0 0 121 0 1025,6
30 Tierras Nobles 07-05-2026 07:15 6,1 62 0 0 121 0 1025,5
29 Tierras Nobles 07-05-2026 07:00 6,3 63 0 0 121 0 1025,3
28 Tierras Nobles 07-05-2026 06:45 6,7 62 0 0 121 0 1025,1
27 Tierras Nobles 07-05-2026 06:30 6,9 61 0 0 121 0 1025
26 Tierras Nobles 07-05-2026 06:15 7 62 0,2 0 126 0 1025
25 Tierras Nobles 07-05-2026 06:00 7,1 62 0 0 129 0 1024,9
24 Tierras Nobles 07-05-2026 05:45 7,2 62 0,6 0 129 0 1024,7
23 Tierras Nobles 07-05-2026 05:30 7,3 63 1 0 129 0 1024,6
22 Tierras Nobles 07-05-2026 05:15 7,3 64 0,2 0 129 0 1024,6
21 Tierras Nobles 07-05-2026 05:00 7,4 65 0,6 0 129 0 1024,3
20 Tierras Nobles 07-05-2026 04:45 7,5 65 0,4 0 129 0 1024,2
19 Tierras Nobles 07-05-2026 04:30 7,6 66 0 0 124 0 1024
18 Tierras Nobles 07-05-2026 04:15 7,8 67 0 0 124 0 1024
17 Tierras Nobles 07-05-2026 04:00 7,8 68 0 0 124 0 1023,8
16 Tierras Nobles 07-05-2026 03:45 8 68 0 0 124 0 1023,7
15 Tierras Nobles 07-05-2026 03:30 8 67 0 0 124 0 1023,7
14 Tierras Nobles 07-05-2026 03:15 8 67 0 0 124 0 1023,6
13 Tierras Nobles 07-05-2026 03:00 7,8 67 0 0 124 0 1023,6
12 Tierras Nobles 07-05-2026 02:45 7,6 66 0 0,4 124 0 1023,6
11 Tierras Nobles 07-05-2026 02:30 7,6 66 0 0,4 165 0 1023,5
10 Tierras Nobles 07-05-2026 02:15 7,6 67 0 0 165 0 1023,6
9 Tierras Nobles 07-05-2026 02:00 7,7 68 0 0 115 0 1023,4
8 Tierras Nobles 07-05-2026 01:45 7,7 69 0 0 115 0 1023
7 Tierras Nobles 07-05-2026 01:30 7,7 70 0 0 115 0 1023
6 Tierras Nobles 07-05-2026 01:15 7,8 72 0 0 115 0 1022,8
5 Tierras Nobles 07-05-2026 01:00 7,9 72 0 0 115 0 1022,6
4 Tierras Nobles 07-05-2026 00:45 8 73 0 0 115 0 1022,5
3 Tierras Nobles 07-05-2026 00:30 8,3 74 0 0 115 0 1022,3
2 Tierras Nobles 07-05-2026 00:15 8,4 74 0 0 115 0 1022,5
1 Tierras Nobles 07-05-2026 00:00 8,4 76 0 0 115 0 1022,4